Tracking 29892 objects as of 21-Nov-2024
HD Live streaming from Space Station
objects crossing your sky now

STARLINK-31315

Track STARLINK-31315 now!
10-day predictions
STARLINK-31315 is classified as:


NORAD ID: 58884
Int'l Code: 2024-020J
Perigee: 481.4 km
Apogee: 483.2 km
Inclination: 53.2 °
Period: 94.1 minutes
Semi major axis: 6853 km
RCS: Unknown
Launch date: January 29, 2024
Source: United States (US)
Launch site: AIR FORCE WESTERN TEST RANGE (AFWTR)
Your satellite tracking list
Your tracking list is empty




NASA's NSSDC Master Catalog

Two Line Element Set (TLE):
1 58884U 24020J   24325.48720625  .00004931  00000-0  17836-3 0  9996
2 58884  53.1595 339.6914 0001290 101.2066 258.9080 15.30224924 46820
Source of the keplerian elements: AFSPC